Starlink 31844

operational
NORAD ID: 60583 Int'l Des: 2024-150 Owner: SPXS Country: US Constellation: starlink
LEOCIRCULAR

About Starlink 31844

Description loading...

Live Position

Loading 3D Globe...

Upcoming Passes

Altitude History

Altitude vs Time

uPlot chart will show altitude changes over time

Two-Line Element Set

1 60583U 24150A 25305.39837427 .00001990 00000-0 79336-4 0 9993
2 60583 53.1600 182.6272 0001432 83.2326 276.8838 15.30191054 68400
Epoch: Nov 1, 2025 • Age: 27 hours

Current Status

Altitude 475.4 km
Velocity 7.63 km/s
Sub-Earth Point 20.86°N, 105.63°E
Launch Date Aug 20, 2024
Age 1.1 years
Type internet

Technical Details

Classification Payload
Mass 730.00 kg
Dry Mass 700.00 kg
Total Mass 730.00 kg
Length 0.30 m
Diameter 4.10 m
Span 29.00 m
Shape Box + pan
Manufacturer SPXS
Bus Type Starlink V2M
Phase Status In Orbit
Owner/State SPXS/US

Large Constellations

Loading constellations...